sat.trackr.live / text

‹ back to catalog

STARLINK-5589

NORAD 57334 · 2023-099G

PAYLOAD ACTIVE UNKNOWN

§ Identity

Operator
Country
US
Launch date
2023-07-16
Launch site
AFETR
Launch vehicle
Mass (kg)
RCS (m²)

Purposes: comms

External: N2YO · Heavens-Above · Gunter

§ Orbital elements

Epoch: 2026-09-20T22:05:53.129184Z

Period
94.27 min
Inclination
43.0012°
Eccentricity
0.0001446
Mean motion
15.27572416 rev/d
Perigee alt
482.1 km
Apogee alt
484.1 km
Semi-major
6,861.2 km
B*
2.0665e-5
RAAN
229.9100°
Arg perigee
268.2859°
Mean anomaly
91.7827°
Rev number
17,593

§ Raw data

STARLINK-55891 57334U 23099G   26263.92075381  .00000306  00000+0  20665-4 0  99902 57334  43.0012 229.9100 0001446 268.2859  91.7827 15.27572416175931

JSON: /api/v1/satellites/57334 · /tle

For live sub-satellite position, see the globe view (requires WebGL).

§ Visibility from observer

Set your observer location to see the next 7 days of passes ≥ 10°. The values pass through the URL so the page stays shareable.

No JS? Fill the form by hand. The geolocation button needs JavaScript.